Regional Weather Roundup
Issued by NWS Sioux Falls, SD

Home | Current Version | Previous Version | Graphics & Text | Print | Product List | Glossary On
Versions: 1 2 3 4 5 6 7 8 9 10 11 12 13 14 15 16 17 18 19 20 21 22 23 24 25 26 27 28 29 30 31 32 33 34 35 36 37 38 39 40 41 42 43 44 45 46 47 48 49 50
000
ASUS43 KFSD 262002
RWRFSD

WEATHER ROUNDUP FOR SE SOUTH DAKOTA/SW MINNESOTA/NW IOWA
NATIONAL WEATHER SERVICE SIOUX FALLS SD
300 PM CDT MON JUN 26 2017

NOTE: "FAIR" INDICATES FEW OR NO CLOUDS BELOW 12,000 FEET WITH NO
SIGNIFICANT WEATHER AND OR OBSTRUCTIONS TO VISIBILITY.


SDZ038>040-050-052>070-262100-
SOUTHEAST SOUTH DAKOTA

CITY           SKY/WX    TMP DP  RH WIND       PRES   REMARKS
BROOKINGS      SUNNY     66  39  37 VRB6      30.20F
CHAMBERLAIN    SUNNY     74  40  29 NE9       30.19F
HURON          SUNNY     70  37  29 SE7       30.19F
MADISON        FAIR      66  43  42 E9G16     30.20F
MITCHELL       SUNNY     72  36  26 NE7       30.19F
SIOUX FALLS    MOSUNNY   70  47  43 N9        30.19F
WINNER         FAIR      77  38  24 NE3G22    30.19F
YANKTON        MOSUNNY   71  44  37 N8        30.18F
$$

MNZ071-072-080-081-089-090-097-098-262100-
SOUTHWEST MINNESOTA

CITY           SKY/WX    TMP DP  RH WIND       PRES   REMARKS
JACKSON        MOSUNNY   64  37  36 N7        30.19F
LUVERNE        SUNNY     66  34  30 NW5       30.20F
MARSHALL       MOSUNNY   66  40  38 N9        30.19F
MONTEVIDEO     SUNNY     72  43  35 NE3       30.19F
PIPESTONE      SUNNY     68  37  32 N5        30.19F
REDWOOD FALLS  PTSUNNY   68  39  34 N8        30.17F
TRACY          SUNNY     68  43  39 NW9       30.20F
WINDOM         SUNNY     66  37  34 CALM      30.18F
WORTHINGTON    MOSUNNY   67  43  41 NE9G22    30.19F
$$

IAZ001>003-012>014-020>022-031-032-NEZ013-014-SDZ071-262100-
NORTHWEST IOWA

CITY           SKY/WX    TMP DP  RH WIND       PRES   REMARKS
CHEROKEE       MOSUNNY   70  46  41 NE5G16    30.17S
DENISON        MOSUNNY   70  46  43 NE9       30.17S
ESTHERVILLE    SUNNY     67  42  40 N13G24    30.17F
LE MARS        SUNNY     72  43  35 NE7G16    30.18F
ORANGE CITY    SUNNY     70  43  37 N8        30.18F
SHELDON        SUNNY     68  43  40 NE10      30.17F
SIOUX CITY     MOSUNNY   74  47  38 MISG      30.16F
SPENCER        SUNNY     71  41  33 NE10G18   30.18F
STORM LAKE       N/A     68  43  40 NE12G18   30.17F
$$

ABBREVIATIONS USED IN REMARKS
   TC - TEMPERATURE IN CELSIUS
  WCI - WIND CHILL INDEX
   HX - HEAT INDEX
  VSB - VISIBILITY





USA.gov is the U.S. government's official web portal to all federal, state and local government web resources and services.